CYGFM08 (41888 NORAD) Tracking and Keplerian Element Data

This shows tracking and keplerian element data for the satellite.

Feedback or suggestion? Click here.




ElementValue
Catalog41888
NameCYGFM08
Epoch Orbit8738
Epoch Day195.86698846
Epoch Year2018
RAAN107.652
Inclination34.9505
Eccentricity0.0016549
Argument of Perigee248.8908
Mean Anonmoly111.0034
Mean Motion15.1434799
Decay Rate2.44E-06
L11 41888U 16078E 18195.86698846 .00000244 00000-0 14673-4 0 9995
L22 41888 34.9505 107.6520 0016549 248.8908 111.0034 15.14347990 87381

Live tracking and technical data element details for CYGFM08 (NORAD 41888). CYGFM08 can be tracked NOW for your location showing map with azimuth and elevation plus other details from your city location.

Track the satellite on the map from your city or location and see movement details for azimuth, elevation, latitude, longitude, range, height, and movement on the map or in text.







IsCatalogInMostPopularTable: catalog: 41888, numindb: 94
Update: records affected: 1



GetName: 41888 CYGFM08

Hit Count: updated at: Sun, 15 Jul 2018 23:18:35 GMT